| time (UTC) | temp F | wind direction | speed MPH | gust MPH | rain 1hr in | rain 24hr in | rain mn in | humidity % | barometer mb |
| 20260504031515 | 59 | 280 | 1.0 | 6.0 | 0.00 | 0.00 | 0.00 | 33 | 1017.0 |
| 20260504031331 | 60 | 224 | 2.0 | 0.0 | 0.00 | 0.00 | 0.00 | 33 | 1017.0 |
| 20260504031006 | 59 | 268 | 2.0 | 4.0 | 0.00 | 0.00 | 0.00 | 33 | 1017.0 |
| 20260504030844 | 60 | 261 | 3.0 | 0.0 | 0.00 | 0.00 | 0.00 | 33 | 1017.0 |
| 20260504030535 | 59 | 251 | 2.0 | 4.0 | 0.00 | 0.00 | 0.00 | 33 | 1017.0 |
| 20260504030340 | 60 | 227 | 4.0 | 0.0 | 0.00 | 0.00 | 0.00 | 33 | 1017.0 |
| 20260504030007 | 59 | 228 | 1.0 | 5.0 | 0.00 | 0.00 | 0.00 | 33 | 1017.0 |
| 20260504025855 | 60 | 228 | 4.0 | 0.0 | 0.00 | 0.00 | 0.00 | 33 | 1017.0 |
| 20260504025536 | 59 | 228 | 2.0 | 5.0 | 0.00 | 0.00 | 0.00 | 33 | 1017.0 |
| 20260504025331 | 60 | 228 | 3.0 | 0.0 | 0.00 | 0.00 | 0.00 | 33 | 1017.0 |
| 20260504025032 | 59 | 228 | 0.0 | 4.0 | 0.00 | 0.00 | 0.00 | 33 | 1017.0 |
| 20260504024846 | 60 | 228 | 3.0 | 0.0 | 0.00 | 0.00 | 0.00 | 33 | 1017.0 |
| 20260504024524 | 59 | 228 | 2.0 | 4.0 | 0.00 | 0.00 | 0.00 | 33 | 1017.0 |
| 20260504024342 | 60 | 228 | 4.0 | 0.0 | 0.00 | 0.00 | 0.00 | 33 | 1017.0 |
| 20260504024019 | 59 | 228 | 2.0 | 6.0 | 0.00 | 0.00 | 0.00 | 33 | 1017.0 |
| 20260504023839 | 60 | 228 | 4.0 | 0.0 | 0.00 | 0.00 | 0.00 | 33 | 1017.0 |
| 20260504023512 | 59 | 241 | 2.0 | 6.0 | 0.00 | 0.00 | 0.00 | 33 | 1017.0 |
| 20260504023335 | 60 | 243 | 1.0 | 0.0 | 0.00 | 0.00 | 0.00 | 33 | 1017.0 |
| 20260504023008 | 60 | 211 | 5.0 | 6.0 | 0.00 | 0.00 | 0.00 | 33 | 1017.0 |
| 20260504022850 | 60 | 207 | 4.0 | 0.0 | 0.00 | 0.00 | 0.00 | 33 | 1017.0 |
| 20260504022531 | 60 | 216 | 3.0 | 6.0 | 0.00 | 0.00 | 0.00 | 33 | 1017.0 |
| 20260504022344 | 60 | 246 | 1.0 | 0.0 | 0.00 | 0.00 | 0.00 | 33 | 1017.0 |
| 20260504022028 | 60 | 276 | 4.0 | 6.0 | 0.00 | 0.00 | 0.00 | 33 | 1017.0 |
| 20260504021842 | 60 | 291 | 7.0 | 0.0 | 0.00 | 0.00 | 0.00 | 33 | 1017.0 |
| 20260504021519 | 60 | 278 | 2.0 | 5.0 | 0.00 | 0.00 | 0.00 | 33 | 1017.0 |
| 20260504021338 | 60 | 292 | 4.0 | 0.0 | 0.00 | 0.00 | 0.00 | 33 | 1017.0 |
| 20260504021014 | 60 | 286 | 3.0 | 5.0 | 0.00 | 0.00 | 0.00 | 33 | 1017.0 |
| 20260504020833 | 60 | 290 | 4.0 | 0.0 | 0.00 | 0.00 | 0.00 | 33 | 1017.0 |
| 20260504020509 | 60 | 289 | 3.0 | 6.0 | 0.00 | 0.00 | 0.00 | 33 | 1017.0 |
| 20260504020351 | 60 | 215 | 7.0 | 0.0 | 0.00 | 0.00 | 0.00 | 33 | 1017.0 |
| 20260504020039 | 60 | 279 | 3.0 | 6.0 | 0.00 | 0.00 | 0.00 | 33 | 1017.0 |
| 20260504015831 | 60 | 211 | 5.0 | 0.0 | 0.00 | 0.00 | 0.00 | 33 | 1017.0 |
| 20260504015535 | 60 | 245 | 3.0 | 6.0 | 0.00 | 0.00 | 0.00 | 33 | 1017.0 |
| 20260504015329 | 61 | 210 | 2.0 | 0.0 | 0.00 | 0.00 | 0.00 | 33 | 1017.0 |
| 20260504015030 | 60 | 244 | 4.0 | 6.0 | 0.00 | 0.00 | 0.00 | 33 | 1017.0 |
| 20260504014844 | 61 | 199 | 6.0 | 0.0 | 0.00 | 0.00 | 0.00 | 33 | 1017.0 |
| 20260504014521 | 60 | 236 | 3.0 | 5.0 | 0.00 | 0.00 | 0.00 | 33 | 1017.0 |
| 20260504014341 | 61 | 216 | 5.0 | 0.0 | 0.00 | 0.00 | 0.00 | 33 | 1017.0 |
| 20260504014015 | 60 | 243 | 4.0 | 7.0 | 0.00 | 0.00 | 0.00 | 33 | 1017.0 |
| 20260504013837 | 61 | 255 | 2.0 | 0.0 | 0.00 | 0.00 | 0.00 | 33 | 1017.0 |
| 20260504013510 | 60 | 272 | 3.0 | 7.0 | 0.00 | 0.00 | 0.00 | 33 | 1017.0 |
| 20260504013333 | 61 | 228 | 10.0 | 0.0 | 0.00 | 0.00 | 0.00 | 33 | 1017.0 |
| 20260504013055 | 61 | 213 | 2.0 | 8.0 | 0.00 | 0.00 | 0.00 | 33 | 1017.0 |
| 20260504012845 | 61 | 207 | 2.0 | 0.0 | 0.00 | 0.00 | 0.00 | 33 | 1017.0 |
| 20260504012548 | 61 | 240 | 6.0 | 8.0 | 0.00 | 0.00 | 0.00 | 33 | 1017.0 |
| 20260504012337 | 61 | 236 | 7.0 | 0.0 | 0.00 | 0.00 | 0.00 | 33 | 1017.0 |
| 20260504012037 | 61 | 292 | 2.0 | 5.0 | 0.00 | 0.00 | 0.00 | 33 | 1017.0 |
| 20260504011831 | 61 | 217 | 5.0 | 0.0 | 0.00 | 0.00 | 0.00 | 33 | 1017.0 |
| 20260504011509 | 61 | 214 | 4.0 | 7.0 | 0.00 | 0.00 | 0.00 | 33 | 1017.0 |
| 20260504011347 | 61 | 295 | 6.0 | 0.0 | 0.00 | 0.00 | 0.00 | 33 | 1017.0 |
| 20260504011102 | 61 | 228 | 4.0 | 7.0 | 0.00 | 0.00 | 0.00 | 33 | 1017.0 |
| 20260504011005 | 61 | 248 | 6.0 | 7.0 | 0.00 | 0.00 | 0.00 | 33 | 1017.0 |
| 20260504010841 | 62 | 273 | 5.0 | 0.0 | 0.00 | 0.00 | 0.00 | 33 | 1017.0 |
| 20260504010555 | 61 | 278 | 4.0 | 11.0 | 0.00 | 0.00 | 0.00 | 33 | 1017.0 |
| 20260504010339 | 62 | 240 | 9.0 | 0.0 | 0.00 | 0.00 | 0.00 | 33 | 1017.0 |
| 20260504010056 | 62 | 275 | 6.0 | 11.0 | 0.00 | 0.00 | 0.00 | 33 | 1017.0 |
| 20260504005833 | 62 | 265 | 6.0 | 0.0 | 0.00 | 0.00 | 0.00 | 33 | 1017.0 |
| 20260504005540 | 62 | 206 | 4.0 | 6.0 | 0.00 | 0.00 | 0.00 | 33 | 1017.0 |
| 20260504005350 | 63 | 260 | 5.0 | 0.0 | 0.00 | 0.00 | 0.00 | 33 | 1017.0 |
| 20260504005014 | 62 | 279 | 4.0 | 4.0 | 0.00 | 0.00 | 0.00 | 33 | 1017.0 |
| 20260504004826 | 63 | 249 | 3.0 | 0.0 | 0.00 | 0.00 | 0.00 | 33 | 1017.0 |
| 20260504004517 | 62 | 279 | 2.0 | 6.0 | 0.00 | 0.00 | 0.00 | 33 | 1017.0 |
| 20260504004341 | 63 | 211 | 6.0 | 0.0 | 0.00 | 0.00 | 0.00 | 33 | 1017.0 |
| 20260504004056 | 63 | 279 | 4.0 | 7.0 | 0.00 | 0.00 | 0.00 | 33 | 1017.0 |
| 20260504003834 | 63 | 210 | 6.0 | 0.0 | 0.00 | 0.00 | 0.00 | 33 | 1017.0 |
| 20260504003550 | 63 | 201 | 5.0 | 9.0 | 0.00 | 0.00 | 0.00 | 33 | 1017.0 |
| 20260504003331 | 63 | 271 | 3.0 | 0.0 | 0.00 | 0.00 | 0.00 | 33 | 1017.0 |
| 20260504003050 | 63 | 205 | 4.0 | 9.0 | 0.00 | 0.00 | 0.00 | 33 | 1017.0 |
| 20260504002825 | 64 | 282 | 4.0 | 0.0 | 0.00 | 0.00 | 0.00 | 33 | 1017.0 |
| 20260504002536 | 63 | 293 | 5.0 | 7.0 | 0.00 | 0.00 | 0.00 | 33 | 1017.0 |
| 20260504002403 | 64 | 234 | 8.0 | 0.0 | 0.00 | 0.00 | 0.00 | 33 | 1017.0 |
| 20260504002010 | 64 | 227 | 5.0 | 7.0 | 0.00 | 0.00 | 0.00 | 33 | 1017.0 |
| 20260504001838 | 64 | 285 | 11.0 | 0.0 | 0.00 | 0.00 | 0.00 | 33 | 1017.0 |
| 20260504001506 | 64 | 216 | 3.0 | 7.0 | 0.00 | 0.00 | 0.00 | 33 | 1017.0 |
| 20260504001342 | 64 | 242 | 7.0 | 0.0 | 0.00 | 0.00 | 0.00 | 33 | 1017.0 |
| 20260504001057 | 64 | 238 | 6.0 | 9.0 | 0.00 | 0.00 | 0.00 | 33 | 1017.0 |
| 20260504000837 | 65 | 225 | 8.0 | 0.0 | 0.00 | 0.00 | 0.00 | 33 | 1017.0 |
| 20260504000551 | 64 | 220 | 7.0 | 9.0 | 0.00 | 0.00 | 0.00 | 33 | 1017.0 |
| 20260504000334 | 65 | 183 | 4.0 | 0.0 | 0.00 | 0.00 | 0.00 | 33 | 1017.0 |
| 20260504000046 | 64 | 286 | 7.0 | 8.0 | 0.00 | 0.00 | 0.00 | 33 | 1017.0 |
| 20260503235826 | 65 | 231 | 8.0 | 0.0 | 0.00 | 0.00 | 0.00 | 33 | 1017.0 |
| 20260503235541 | 64 | 251 | 3.0 | 8.0 | 0.00 | 0.00 | 0.00 | 33 | 1017.0 |
| 20260503235325 | 66 | 218 | 11.0 | 0.0 | 0.00 | 0.00 | 0.00 | 33 | 1017.0 |
| 20260503235011 | 65 | 214 | 5.0 | 8.0 | 0.00 | 0.00 | 0.00 | 33 | 1017.0 |
| 20260503234841 | 66 | 223 | 6.0 | 0.0 | 0.00 | 0.00 | 0.00 | 33 | 1017.0 |
| 20260503234514 | 66 | 269 | 6.0 | 8.0 | 0.00 | 0.00 | 0.00 | 33 | 1017.0 |
| 20260503234339 | 67 | 259 | 3.0 | 0.0 | 0.00 | 0.00 | 0.00 | 33 | 1017.0 |
| 20260503234057 | 67 | 227 | 4.0 | 6.0 | 0.00 | 0.00 | 0.00 | 33 | 1017.0 |
| 20260503234001 | 67 | 269 | 4.0 | 6.0 | 0.00 | 0.00 | 0.00 | 33 | 1017.0 |
| 20260503233836 | 67 | 276 | 9.0 | 0.0 | 0.00 | 0.00 | 0.00 | 33 | 1017.0 |
| 20260503233553 | 67 | 249 | 5.0 | 6.0 | 0.00 | 0.00 | 0.00 | 33 | 1017.0 |
| 20260503233352 | 67 | 221 | 5.0 | 0.0 | 0.00 | 0.00 | 0.00 | 33 | 1017.0 |
| 20260503233024 | 67 | 242 | 1.0 | 4.0 | 0.00 | 0.00 | 0.00 | 33 | 1017.0 |
| 20260503232849 | 68 | 269 | 4.0 | 0.0 | 0.00 | 0.00 | 0.00 | 33 | 1017.0 |
| 20260503232553 | 68 | 253 | 2.0 | 6.0 | 0.00 | 0.00 | 0.00 | 33 | 1017.0 |
| 20260503232342 | 68 | 291 | 5.0 | 0.0 | 0.00 | 0.00 | 0.00 | 33 | 1017.0 |
| 20260503232026 | 67 | 269 | 3.0 | 6.0 | 0.00 | 0.00 | 0.00 | 33 | 1017.0 |
| 20260503231839 | 67 | 226 | 1.0 | 0.0 | 0.00 | 0.00 | 0.00 | 33 | 1017.0 |
| 20260503231521 | 66 | 228 | 5.0 | 7.0 | 0.00 | 0.00 | 0.00 | 33 | 1017.0 |
| 20260503231334 | 66 | 278 | 6.0 | 0.0 | 0.00 | 0.00 | 0.00 | 33 | 1017.0 |
| 20260503231049 | 66 | 210 | 4.0 | 7.0 | 0.00 | 0.00 | 0.00 | 33 | 1017.0 |
| 20260503230828 | 66 | 204 | 6.0 | 0.0 | 0.00 | 0.00 | 0.00 | 33 | 1017.0 |
| 20260503230540 | 66 | 205 | 6.0 | 13.0 | 0.00 | 0.00 | 0.00 | 33 | 1017.0 |
| 20260503230344 | 66 | 237 | 10.0 | 0.0 | 0.00 | 0.00 | 0.00 | 33 | 1017.0 |
| 20260503230034 | 66 | 186 | 5.0 | 13.0 | 0.00 | 0.00 | 0.00 | 33 | 1017.0 |
| 20260503225856 | 66 | 295 | 4.0 | 0.0 | 0.00 | 0.00 | 0.00 | 33 | 1017.0 |
| 20260503225600 | 66 | 283 | 8.0 | 13.0 | 0.00 | 0.00 | 0.00 | 33 | 1017.0 |
| 20260503225503 | 66 | 220 | 9.0 | 13.0 | 0.00 | 0.00 | 0.00 | 33 | 1017.0 |
| 20260503225332 | 67 | 242 | 4.0 | 0.0 | 0.00 | 0.00 | 0.00 | 33 | 1017.0 |
| 20260503225053 | 66 | 289 | 3.0 | 7.0 | 0.00 | 0.00 | 0.00 | 33 | 1017.0 |
| 20260503224827 | 67 | 238 | 3.0 | 0.0 | 0.00 | 0.00 | 0.00 | 33 | 1017.0 |
| 20260503224547 | 66 | 293 | 4.0 | 7.0 | 0.00 | 0.00 | 0.00 | 33 | 1017.0 |
| 20260503224343 | 67 | 222 | 5.0 | 0.0 | 0.00 | 0.00 | 0.00 | 33 | 1017.0 |
| 20260503224041 | 66 | 285 | 5.0 | 6.0 | 0.00 | 0.00 | 0.00 | 33 | 1017.0 |
| 20260503223839 | 67 | 257 | 6.0 | 0.0 | 0.00 | 0.00 | 0.00 | 33 | 1017.0 |
| 20260503223518 | 66 | 284 | 2.0 | 6.0 | 0.00 | 0.00 | 0.00 | 33 | 1017.0 |
| 20260503223355 | 67 | 281 | 2.0 | 0.0 | 0.00 | 0.00 | 0.00 | 33 | 1017.0 |
| 20260503223043 | 66 | 267 | 3.0 | 4.0 | 0.00 | 0.00 | 0.00 | 33 | 1017.0 |
| 20260503222853 | 66 | 286 | 6.0 | 0.0 | 0.00 | 0.00 | 0.00 | 33 | 1017.0 |
| 20260503222517 | 66 | 276 | 2.0 | 7.0 | 0.00 | 0.00 | 0.00 | 33 | 1017.0 |
| 20260503222350 | 66 | 283 | 5.0 | 0.0 | 0.00 | 0.00 | 0.00 | 33 | 1017.0 |
| 20260503222046 | 66 | 138 | 2.0 | 7.0 | 0.00 | 0.00 | 0.00 | 33 | 1017.0 |
| 20260503221841 | 66 | 231 | 8.0 | 0.0 | 0.00 | 0.00 | 0.00 | 33 | 1017.0 |
| 20260503221537 | 66 | 303 | 6.0 | 7.0 | 0.00 | 0.00 | 0.00 | 33 | 1017.0 |
| 20260503221336 | 66 | 282 | 6.0 | 0.0 | 0.00 | 0.00 | 0.00 | 33 | 1017.0 |
| 20260503221032 | 66 | 292 | 4.0 | 8.0 | 0.00 | 0.00 | 0.00 | 33 | 1017.0 |
| 20260503220833 | 66 | 233 | 7.0 | 0.0 | 0.00 | 0.00 | 0.00 | 33 | 1017.0 |
| 20260503220531 | 65 | 257 | 0.0 | 8.0 | 0.00 | 0.00 | 0.00 | 33 | 1017.0 |
| 20260503220331 | 65 | 236 | 8.0 | 0.0 | 0.00 | 0.00 | 0.00 | 33 | 1017.0 |
| 20260503220056 | 65 | 221 | 4.0 | 6.0 | 0.00 | 0.00 | 0.00 | 33 | 1017.0 |
| 20260503215827 | 65 | 259 | 4.0 | 0.0 | 0.00 | 0.00 | 0.00 | 33 | 1017.0 |
| 20260503215550 | 64 | 292 | 3.0 | 7.0 | 0.00 | 0.00 | 0.00 | 33 | 1017.0 |
| 20260503215342 | 65 | 265 | 2.0 | 0.0 | 0.00 | 0.00 | 0.00 | 33 | 1017.0 |
| 20260503215046 | 64 | 224 | 2.0 | 7.0 | 0.00 | 0.00 | 0.00 | 33 | 1017.0 |
| 20260503214839 | 65 | 291 | 9.0 | 0.0 | 0.00 | 0.00 | 0.00 | 33 | 1017.0 |
| 20260503214538 | 64 | 245 | 5.0 | 7.0 | 0.00 | 0.00 | 0.00 | 33 | 1017.0 |
| 20260503214339 | 65 | 278 | 4.0 | 0.0 | 0.00 | 0.00 | 0.00 | 33 | 1017.0 |
| 20260503214032 | 64 | 261 | 5.0 | 6.0 | 0.00 | 0.00 | 0.00 | 33 | 1017.0 |
| 20260503213838 | 64 | 286 | 6.0 | 0.0 | 0.00 | 0.00 | 0.00 | 33 | 1017.0 |
| 20260503213525 | 64 | 297 | 3.0 | 7.0 | 0.00 | 0.00 | 0.00 | 33 | 1017.0 |
| 20260503213333 | 64 | 259 | 8.0 | 0.0 | 0.00 | 0.00 | 0.00 | 33 | 1017.0 |
| 20260503213016 | 64 | 297 | 6.0 | 9.0 | 0.00 | 0.00 | 0.00 | 33 | 1017.0 |
| 20260503212848 | 65 | 258 | 10.0 | 0.0 | 0.00 | 0.00 | 0.00 | 33 | 1017.0 |
| 20260503212552 | 64 | 290 | 6.0 | 11.0 | 0.00 | 0.00 | 0.00 | 33 | 1017.0 |
| 20260503212324 | 65 | 262 | 9.0 | 0.0 | 0.00 | 0.00 | 0.00 | 33 | 1017.0 |
| 20260503212044 | 65 | 290 | 7.0 | 11.0 | 0.00 | 0.00 | 0.00 | 33 | 1017.0 |
| 20260503211842 | 65 | 234 | 4.0 | 0.0 | 0.00 | 0.00 | 0.00 | 33 | 1017.0 |
| 20260503211538 | 65 | 287 | 2.0 | 7.0 | 0.00 | 0.00 | 0.00 | 33 | 1017.0 |
| 20260503211338 | 65 | 288 | 5.0 | 0.0 | 0.00 | 0.00 | 0.00 | 33 | 1017.0 |
| 20260503211033 | 65 | 253 | 5.0 | 7.0 | 0.00 | 0.00 | 0.00 | 33 | 1017.0 |
| 20260503210837 | 66 | 268 | 12.0 | 0.0 | 0.00 | 0.00 | 0.00 | 33 | 1017.0 |
| 20260503210528 | 65 | 238 | 4.0 | 7.0 | 0.00 | 0.00 | 0.00 | 33 | 1017.0 |
| 20260503210332 | 66 | 214 | 6.0 | 0.0 | 0.00 | 0.00 | 0.00 | 33 | 1017.0 |
| 20260503210020 | 66 | 293 | 3.0 | 9.0 | 0.00 | 0.00 | 0.00 | 33 | 1017.0 |
| 20260503205828 | 66 | 236 | 3.0 | 0.0 | 0.00 | 0.00 | 0.00 | 33 | 1017.0 |
| 20260503205550 | 66 | 297 | 6.0 | 9.0 | 0.00 | 0.00 | 0.00 | 33 | 1017.0 |
| 20260503205342 | 67 | 287 | 5.0 | 0.0 | 0.00 | 0.00 | 0.00 | 33 | 1017.0 |
| 20260503205044 | 66 | 218 | 4.0 | 6.0 | 0.00 | 0.00 | 0.00 | 33 | 1017.0 |
| 20260503204839 | 66 | 281 | 3.0 | 0.0 | 0.00 | 0.00 | 0.00 | 33 | 1017.0 |
| 20260503204539 | 65 | 257 | 3.0 | 8.0 | 0.00 | 0.00 | 0.00 | 33 | 1017.0 |
| 20260503204336 | 66 | 260 | 5.0 | 0.0 | 0.00 | 0.00 | 0.00 | 33 | 1017.0 |
| 20260503204033 | 66 | 271 | 6.0 | 8.0 | 0.00 | 0.00 | 0.00 | 33 | 1017.0 |
| 20260503203833 | 66 | 202 | 10.0 | 0.0 | 0.00 | 0.00 | 0.00 | 33 | 1017.0 |
| 20260503203506 | 65 | 242 | 6.0 | 8.0 | 0.00 | 0.00 | 0.00 | 33 | 1017.0 |
| 20260503203328 | 66 | 289 | 6.0 | 0.0 | 0.00 | 0.00 | 0.00 | 33 | 1017.0 |
| 20260503203035 | 65 | 257 | 6.0 | 8.0 | 0.00 | 0.00 | 0.00 | 33 | 1017.0 |
| 20260503202845 | 66 | 297 | 5.0 | 0.0 | 0.00 | 0.00 | 0.00 | 33 | 1017.0 |
| 20260503202531 | 65 | 261 | 5.0 | 7.0 | 0.00 | 0.00 | 0.00 | 33 | 1017.0 |
| 20260503202341 | 65 | 265 | 5.0 | 0.0 | 0.00 | 0.00 | 0.00 | 33 | 1017.0 |
| 20260503202022 | 64 | 255 | 5.0 | 7.0 | 0.00 | 0.00 | 0.00 | 33 | 1017.0 |
| 20260503201836 | 65 | 301 | 4.0 | 0.0 | 0.00 | 0.00 | 0.00 | 33 | 1017.0 |
| 20260503201518 | 64 | 284 | 5.0 | 7.0 | 0.00 | 0.00 | 0.00 | 33 | 1017.0 |
| 20260503201330 | 65 | 279 | 6.0 | 0.0 | 0.00 | 0.00 | 0.00 | 33 | 1017.0 |
| 20260503201011 | 64 | 304 | 6.0 | 7.0 | 0.00 | 0.00 | 0.00 | 33 | 1017.0 |
| 20260503200845 | 65 | 300 | 9.0 | 0.0 | 0.00 | 0.00 | 0.00 | 33 | 1017.0 |
| 20260503200540 | 64 | 284 | 4.0 | 12.0 | 0.00 | 0.00 | 0.00 | 33 | 1017.0 |
| 20260503200339 | 64 | 291 | 10.0 | 0.0 | 0.00 | 0.00 | 0.00 | 33 | 1017.0 |
| 20260503200029 | 64 | 244 | 4.0 | 12.0 | 0.00 | 0.00 | 0.00 | 33 | 1017.0 |
| 20260503195856 | 64 | 293 | 10.0 | 0.0 | 0.00 | 0.00 | 0.00 | 33 | 1017.0 |
| 20260503195559 | 64 | 286 | 6.0 | 8.0 | 0.00 | 0.00 | 0.00 | 33 | 1017.0 |
| 20260503195502 | 64 | 272 | 5.0 | 8.0 | 0.00 | 0.00 | 0.00 | 33 | 1017.0 |
| 20260503195331 | 65 | 291 | 9.0 | 0.0 | 0.00 | 0.00 | 0.00 | 33 | 1017.0 |
| 20260503195051 | 64 | 259 | 6.0 | 12.0 | 0.00 | 0.00 | 0.00 | 33 | 1017.0 |
| 20260503194830 | 65 | 254 | 8.0 | 0.0 | 0.00 | 0.00 | 0.00 | 33 | 1017.0 |
| 20260503194546 | 64 | 254 | 8.0 | 12.0 | 0.00 | 0.00 | 0.00 | 33 | 1017.0 |
| 20260503194326 | 65 | 278 | 10.0 | 0.0 | 0.00 | 0.00 | 0.00 | 33 | 1017.0 |
| 20260503194038 | 64 | 287 | 7.0 | 10.0 | 0.00 | 0.00 | 0.00 | 33 | 1017.0 |
| 20260503193845 | 65 | 299 | 8.0 | 0.0 | 0.00 | 0.00 | 0.00 | 33 | 1017.0 |
| 20260503193514 | 64 | 305 | 8.0 | 10.0 | 0.00 | 0.00 | 0.00 | 33 | 1017.0 |
| 20260503193339 | 65 | 305 | 8.0 | 0.0 | 0.00 | 0.00 | 0.00 | 33 | 1017.0 |
| 20260503193111 | 65 | 283 | 8.0 | 10.0 | 0.00 | 0.00 | 0.00 | 33 | 1017.0 |
| 20260503193006 | 65 | 284 | 9.0 | 10.0 | 0.00 | 0.00 | 0.00 | 33 | 1017.0 |
| 20260503192835 | 65 | 253 | 8.0 | 0.0 | 0.00 | 0.00 | 0.00 | 33 | 1017.0 |
| 20260503192555 | 64 | 300 | 4.0 | 8.0 | 0.00 | 0.00 | 0.00 | 33 | 1017.0 |
| 20260503192330 | 65 | 267 | 6.0 | 0.0 | 0.00 | 0.00 | 0.00 | 33 | 1017.0 |
| 20260503192048 | 64 | 287 | 6.0 | 8.0 | 0.00 | 0.00 | 0.00 | 33 | 1017.0 |
| 20260503191824 | 65 | 285 | 9.0 | 0.0 | 0.00 | 0.00 | 0.00 | 33 | 1017.0 |
| 20260503191541 | 65 | 268 | 5.0 | 8.0 | 0.00 | 0.00 | 0.00 | 33 | 1017.0 |
| 20260503191340 | 65 | 268 | 5.0 | 0.0 | 0.00 | 0.00 | 0.00 | 33 | 1017.0 |
| 20260503191035 | 65 | 274 | 5.0 | 8.0 | 0.00 | 0.00 | 0.00 | 33 | 1017.0 |
| 20260503190836 | 66 | 260 | 4.0 | 0.0 | 0.00 | 0.00 | 0.00 | 33 | 1017.0 |
| 20260503190528 | 65 | 273 | 6.0 | 8.0 | 0.00 | 0.00 | 0.00 | 33 | 1017.0 |
| 20260503190331 | 66 | 196 | 5.0 | 0.0 | 0.00 | 0.00 | 0.00 | 33 | 1017.0 |
| 20260503190020 | 66 | 302 | 4.0 | 6.0 | 0.00 | 0.00 | 0.00 | 33 | 1017.0 |
| 20260503185824 | 66 | 297 | 5.0 | 0.0 | 0.00 | 0.00 | 0.00 | 33 | 1017.0 |
| 20260503185511 | 66 | 294 | 4.0 | 6.0 | 0.00 | 0.00 | 0.00 | 33 | 1017.0 |
| 20260503185401 | 66 | 296 | 5.0 | 0.0 | 0.00 | 0.00 | 0.00 | 33 | 1017.0 |
| 20260503185046 | 66 | 285 | 2.0 | 6.0 | 0.00 | 0.00 | 0.00 | 33 | 1017.0 |
| 20260503184837 | 66 | 299 | 4.0 | 0.0 | 0.00 | 0.00 | 0.00 | 33 | 1017.0 |
| 20260503184542 | 66 | 205 | 5.0 | 6.0 | 0.00 | 0.00 | 0.00 | 33 | 1017.0 |
| 20260503184334 | 66 | 288 | 5.0 | 0.0 | 0.00 | 0.00 | 0.00 | 33 | 1017.0 |
| 20260503184029 | 66 | 218 | 2.0 | 7.0 | 0.00 | 0.00 | 0.00 | 33 | 1017.0 |
| 20260503183850 | 66 | 259 | 5.0 | 0.0 | 0.00 | 0.00 | 0.00 | 33 | 1017.0 |
| 20260503183557 | 66 | 236 | 4.0 | 7.0 | 0.00 | 0.00 | 0.00 | 33 | 1017.0 |
| 20260503183500 | 66 | 255 | 5.0 | 7.0 | 0.00 | 0.00 | 0.00 | 33 | 1017.0 |
| 20260503183344 | 67 | 264 | 8.0 | 0.0 | 0.00 | 0.00 | 0.00 | 33 | 1017.0 |
| 20260503183103 | 66 | 304 | 5.0 | 7.0 | 0.00 | 0.00 | 0.00 | 33 | 1017.0 |
| 20260503182841 | 66 | 266 | 8.0 | 0.0 | 0.00 | 0.00 | 0.00 | 33 | 1017.0 |
| 20260503182544 | 65 | 281 | 4.0 | 6.0 | 0.00 | 0.00 | 0.00 | 33 | 1017.0 |
| 20260503182336 | 65 | 226 | 5.0 | 0.0 | 0.00 | 0.00 | 0.00 | 33 | 1017.0 |
| 20260503182040 | 64 | 237 | 3.0 | 6.0 | 0.00 | 0.00 | 0.00 | 33 | 1017.0 |
| 20260503181832 | 65 | 211 | 9.0 | 0.0 | 0.00 | 0.00 | 0.00 | 33 | 1017.0 |
| 20260503181534 | 65 | 221 | 2.0 | 5.0 | 0.00 | 0.00 | 0.00 | 33 | 1017.0 |
| 20260503181350 | 66 | 221 | 4.0 | 0.0 | 0.00 | 0.00 | 0.00 | 33 | 1017.0 |
| 20260503181100 | 65 | 259 | 2.0 | 5.0 | 0.00 | 0.00 | 0.00 | 33 | 1017.0 |
| 20260503181003 | 65 | 244 | 2.0 | 5.0 | 0.00 | 0.00 | 0.00 | 33 | 1017.0 |
| 20260503180843 | 66 | 315 | 2.0 | 0.0 | 0.00 | 0.00 | 0.00 | 33 | 1017.0 |
| 20260503180554 | 65 | 229 | 2.0 | 3.0 | 0.00 | 0.00 | 0.00 | 33 | 1017.0 |
| 20260503180337 | 66 | 258 | 2.0 | 0.0 | 0.00 | 0.00 | 0.00 | 33 | 1017.0 |
| 20260503180045 | 66 | 272 | 2.0 | 3.0 | 0.00 | 0.00 | 0.00 | 33 | 1017.0 |
| 20260503175836 | 66 | 262 | 3.0 | 0.0 | 0.00 | 0.00 | 0.00 | 33 | 1017.0 |
| 20260503175542 | 65 | 263 | 1.0 | 3.0 | 0.00 | 0.00 | 0.00 | 33 | 1017.0 |
| 20260503175332 | 66 | 265 | 3.0 | 0.0 | 0.00 | 0.00 | 0.00 | 33 | 1017.0 |
| 20260503175034 | 65 | 269 | 2.0 | 3.0 | 0.00 | 0.00 | 0.00 | 33 | 1017.0 |
| 20260503174826 | 66 | 268 | 2.0 | 0.0 | 0.00 | 0.00 | 0.00 | 33 | 1017.0 |
| 20260503174528 | 65 | 260 | 1.0 | 2.0 | 0.00 | 0.00 | 0.00 | 33 | 1017.0 |
| 20260503174345 | 66 | 260 | 0.0 | 0.0 | 0.00 | 0.00 | 0.00 | 33 | 1017.0 |
| 20260503174022 | 65 | 260 | 0.0 | 1.0 | 0.00 | 0.00 | 0.00 | 33 | 1017.0 |
| 20260503173841 | 65 | 260 | 2.0 | 0.0 | 0.00 | 0.00 | 0.00 | 33 | 1017.0 |
| 20260503173517 | 64 | 260 | 0.0 | 1.0 | 0.00 | 0.00 | 0.00 | 33 | 1017.0 |
| 20260503173335 | 65 | 260 | 0.0 | 0.0 | 0.00 | 0.00 | 0.00 | 33 | 1017.0 |
| 20260503173007 | 64 | 260 | 0.0 | 0.0 | 0.00 | 0.00 | 0.00 | 33 | 1017.0 |
| 20260503172829 | 65 | 260 | 1.0 | 0.0 | 0.00 | 0.00 | 0.00 | 33 | 1017.0 |
| 20260503172538 | 64 | 260 | 0.0 | 1.0 | 0.00 | 0.00 | 0.00 | 33 | 1017.0 |
| 20260503172325 | 64 | 260 | 0.0 | 0.0 | 0.00 | 0.00 | 0.00 | 33 | 1017.0 |
| 20260503172030 | 63 | 260 | 0.0 | 2.0 | 0.00 | 0.00 | 0.00 | 33 | 1017.0 |
| 20260503171904 | 64 | 260 | 0.0 | 0.0 | 0.00 | 0.00 | 0.00 | 33 | 1017.0 |
| 20260503171506 | 63 | 260 | 1.0 | 3.0 | 0.00 | 0.00 | 0.00 | 33 | 1017.0 |
| 20260503171339 | 64 | 260 | 1.0 | 0.0 | 0.00 | 0.00 | 0.00 | 33 | 1017.0 |
| 20260503171053 | 63 | 260 | 2.0 | 4.0 | 0.00 | 0.00 | 0.00 | 33 | 1017.0 |
| 20260503170833 | 63 | 288 | 2.0 | 0.0 | 0.00 | 0.00 | 0.00 | 33 | 1017.0 |
| 20260503170547 | 63 | 288 | 2.0 | 4.0 | 0.00 | 0.00 | 0.00 | 33 | 1017.0 |
| 20260503170329 | 63 | 288 | 3.0 | 0.0 | 0.00 | 0.00 | 0.00 | 33 | 1017.0 |
| 20260503151012 | 58 | 20 | 0.0 | 0.0 | 0.00 | 0.00 | 0.00 | 33 | 1017.0 |
| 20260503150835 | 59 | 20 | 1.0 | 0.0 | 0.00 | 0.00 | 0.00 | 33 | 1017.0 |
| 20260503150533 | 58 | 19 | 0.0 | 1.0 | 0.00 | 0.00 | 0.00 | 33 | 1017.0 |
| 20260503150400 | 58 | 19 | 0.0 | 0.0 | 0.00 | 0.00 | 0.00 | 33 | 1017.0 |
| 20260503090332 | 58 | 285 | 0.0 | 0.0 | 0.00 | 0.00 | 0.00 | 33 | 1017.0 |
| 20260503090105 | 58 | 285 | 0.0 | 0.0 | 0.00 | 0.00 | 0.00 | 33 | 1017.0 |